EW4907 Weather Reports


Display with metric or nautical units.
time (UTC)temp
F
wind
direction
speed
MPH
gust
MPH
rain 1hr
in
rain 24hr
in
rain mn
in
humidity
%
barometer
mb
20260510173050 81 98 5.0 13.0 0.00 0.00 0.00 70 1014.1
20260510171550 80 139 6.0 13.0 0.00 0.00 0.00 70 1014.2
20260510170046 79 104 8.0 14.0 0.00 0.00 0.00 72 1014.4
20260510164545 79 116 6.0 13.0 0.00 0.00 0.00 73 1014.5
20260510163046 79 106 7.0 13.0 0.00 0.00 0.00 71 1014.4
20260510161541 79 152 5.0 12.0 0.00 0.00 0.00 74 1014.3
20260510160045 78 133 6.0 13.0 0.00 0.00 0.00 75 1014.1
20260510154537 78 174 5.0 11.0 0.00 0.00 0.00 75 1014.2
20260510153035 77 160 5.0 13.0 0.00 0.00 0.00 77 1014.2
20260510151534 77 167 5.0 10.0 0.00 0.00 0.00 76 1014.2
20260510150031 76 218 5.0 11.0 0.00 0.00 0.00 78 1014.0
20260510144528 75 117 4.0 9.0 0.00 0.00 0.00 79 1013.8
20260510143030 75 157 3.0 7.0 0.00 0.00 0.00 79 1013.7
20260510141524 74 167 4.0 7.0 0.00 0.00 0.00 80 1013.6
20260510140020 74 215 2.0 7.0 0.00 0.00 0.00 82 1013.2
20260510134522 73 180 1.0 6.0 0.00 0.00 0.00 83 1013.1
20260510133020 72 141 4.0 7.0 0.00 0.00 0.00 83 1012.8
20260510131514 71 167 3.0 7.0 0.00 0.00 0.00 85 1012.5
20260510130012 71 174 2.0 4.0 0.00 0.00 0.00 86 1012.3
20260510124510 69 153 1.0 3.0 0.00 0.00 0.00 88 1012.1
20260510123009 68 181 1.0 3.0 0.00 0.00 0.00 91 1011.9
20260510121506 67 203 2.0 5.0 0.00 0.00 0.00 92 1011.5
20260510120005 67 215 2.0 5.0 0.00 0.01 0.00 93 1011.5
20260510114503 66 191 1.0 4.0 0.00 0.01 0.00 93 1011.3
20260510113004 67 225 3.0 6.0 0.00 0.01 0.00 93 1011.3
20260510111502 67 214 2.0 4.0 0.00 0.01 0.00 93 1011.3
20260510110100 67 199 2.0 5.0 0.00 0.01 0.00 93 1011.0
20260510104604 67 229 3.0 7.0 0.00 0.01 0.00 92 1010.9
20260510103105 67 235 2.0 5.0 0.00 0.01 0.00 93 1010.8
20260510101557 67 200 3.0 7.0 0.00 0.01 0.00 93 1010.9
20260510100057 67 195 3.0 6.0 0.00 0.02 0.00 92 1010.9
20260510094555 67 197 3.0 6.0 0.00 0.02 0.00 92 1010.8
20260510093109 67 162 3.0 6.0 0.00 0.02 0.00 91 1010.8
20260510091551 68 174 3.0 6.0 0.00 0.02 0.00 90 1011.0
20260510090057 68 180 3.0 5.0 0.00 0.02 0.00 90 1010.8
20260510084549 68 196 2.0 5.0 0.00 0.02 0.00 89 1011.0
20260510083101 69 205 2.0 5.0 0.00 0.02 0.00 88 1011.0
20260510081600 69 169 2.0 5.0 0.00 0.02 0.00 87 1011.1
20260510080050 69 186 2.0 6.0 0.00 0.02 0.00 87 1011.1
20260510074541 69 207 4.0 7.0 0.00 0.02 0.00 86 1011.1
20260510073040 70 162 2.0 5.0 0.00 0.02 0.00 85 1011.2
20260510071541 70 175 3.0 7.0 0.00 0.02 0.00 84 1011.2
20260510070037 71 155 4.0 7.0 0.00 0.02 0.00 84 1011.2
20260510064535 71 125 2.0 5.0 0.00 0.02 0.00 83 1011.0
20260510063031 72 121 3.0 6.0 0.00 0.02 0.00 82 1011.0
20260510061530 72 182 4.0 7.0 0.00 0.02 0.00 82 1011.0
20260510060028 72 191 3.0 5.0 0.00 0.02 0.00 81 1010.9
20260510054525 73 167 3.0 6.0 0.00 0.02 0.00 80 1010.9
20260510053023 73 154 3.0 9.0 0.00 0.02 0.00 79 1011.0
20260510051521 74 120 2.0 7.0 0.00 0.02 0.00 80 1010.9
20260510050018 74 148 2.0 5.0 0.00 0.02 0.02 80 1010.9
20260510044519 74 135 3.0 5.0 0.00 0.02 0.02 80 1010.8
20260510043021 74 150 0.0 3.0 0.00 0.02 0.02 80 1010.8
20260510041519 75 169 1.0 3.0 0.00 0.02 0.02 80 1010.8
20260510040017 75 171 1.0 4.0 0.00 0.02 0.02 79 1010.7
20260510034515 75 143 2.0 4.0 0.00 0.02 0.02 79 1010.6
20260510033014 76 150 2.0 4.0 0.00 0.02 0.02 79 1010.5
20260510031516 76 153 1.0 4.0 0.00 0.02 0.02 79 1010.3
20260510030013 76 159 0.0 4.0 0.00 0.02 0.02 79 1010.2
20260510024516 77 174 4.0 9.0 0.00 0.02 0.02 78 1009.9
20260510023011 78 129 5.0 10.0 0.00 0.02 0.02 76 1009.8
20260510021514 78 119 3.0 7.0 0.00 0.02 0.02 74 1009.7
20260510020110 78 126 3.0 5.0 0.00 0.02 0.02 69 1009.5
20260510014509 79 155 2.0 4.0 0.00 0.02 0.02 66 1009.3
20260510013008 80 148 3.0 4.0 0.00 0.02 0.02 62 1009.2
20260510011510 80 136 2.0 5.0 0.00 0.02 0.02 59 1009.1
20260510010007 81 131 2.0 6.0 0.00 0.02 0.02 57 1008.9
20260510004507 82 122 2.0 5.0 0.00 0.02 0.02 55 1008.9
20260510003018 83 105 3.0 6.0 0.00 0.02 0.02 52 1008.8
20260510001505 83 134 5.0 9.0 0.00 0.02 0.02 48 1008.7
20260510000005 84 141 5.0 9.0 0.00 0.02 0.02 47 1008.6
20260509234503 85 91 4.0 8.0 0.00 0.02 0.02 42 1008.4
20260509233001 85 122 3.0 8.0 0.00 0.02 0.02 44 1008.3
20260509231600 85 146 6.0 12.0 0.00 0.02 0.02 48 1008.4
20260509230100 86 149 4.0 8.0 0.00 0.02 0.02 48 1008.2
20260509224559 86 113 3.0 9.0 0.00 0.02 0.02 53 1008.2
20260509223059 86 108 4.0 8.0 0.00 0.02 0.02 55 1008.2
20260509221558 86 94 3.0 7.0 0.00 0.02 0.02 54 1008.1
20260509220107 86 86 3.0 6.0 0.00 0.02 0.02 55 1008.1
20260509214556 84 192 0.0 7.0 0.00 0.02 0.02 58 1008.3
20260509213053 81 178 2.0 10.0 0.00 0.02 0.02 61 1008.5
20260509211554 80 142 9.0 17.0 0.00 0.02 0.02 55 1008.9
20260509210050 79 105 9.0 18.0 0.00 0.02 0.02 56 1009.0
20260509204549 84 101 8.0 18.0 0.00 0.02 0.02 53 1009.1
20260509203147 88 299 2.0 9.0 0.00 0.02 0.02 48 1008.9
20260509201546 88 219 6.0 9.0 0.00 0.02 0.02 48 1009.0
20260509200054 90 302 2.0 5.0 0.00 0.02 0.02 50 1009.3
20260509194541 88 258 3.0 10.0 0.00 0.02 0.02 52 1009.3
20260509193039 86 237 3.0 5.0 0.00 0.02 0.02 55 1009.7
20260509191544 86 351 3.0 9.0 0.00 0.02 0.02 54 1009.7
20260509190034 87 306 6.0 10.0 0.00 0.02 0.02 55 1010.0
20260509184534 85 347 3.0 6.0 0.00 0.02 0.02 60 1010.2
20260509183031 84 299 3.0 7.0 0.00 0.02 0.02 60 1010.6
20260509181531 86 264 3.0 8.0 0.00 0.02 0.02 61 1010.7
20260509180026 83 153 0.0 6.0 0.00 0.02 0.02 66 1010.8
20260509174526 83 319 3.0 7.0 0.00 0.02 0.02 65 1011.2